TimeCDT,TemperatureF,Dew PointF,Humidity,Sea Level PressureIn,VisibilityMPH,Wind Direction,Wind SpeedMPH,Gust SpeedMPH,PrecipitationIn,Events,Conditions,WindDirDegrees,DateUTC
12:15 AM,73.4,69.8,88,29.82,4.0,South,8.1,-,N/A,,Clear,190,2013-08-07 05:15:00
12:35 AM,73.4,69.8,88,29.83,4.0,SSW,6.9,-,N/A,,Clear,200,2013-08-07 05:35:00
12:55 AM,73.4,71.6,94,29.83,4.0,SSW,6.9,-,N/A,,Clear,200,2013-08-07 05:55:00
1:15 AM,73.4,69.8,88,29.81,4.0,SSW,6.9,-,N/A,,Clear,200,2013-08-07 06:15:00
1:35 AM,73.4,69.8,88,29.81,3.0,SSW,6.9,-,N/A,,Clear,210,2013-08-07 06:35:00
1:55 AM,73.4,69.8,88,29.81,4.0,SSW,8.1,-,N/A,,Clear,200,2013-08-07 06:55:00
2:15 AM,73.4,69.8,88,29.80,5.0,SW,6.9,-,N/A,,Clear,230,2013-08-07 07:15:00
2:35 AM,73.4,69.8,88,29.80,10.0,WSW,5.8,-,N/A,,Clear,240,2013-08-07 07:35:00
2:55 AM,73.4,69.8,88,29.79,10.0,WSW,5.8,-,N/A,,Clear,240,2013-08-07 07:55:00
3:15 AM,71.6,69.8,94,29.80,7.0,SW,8.1,-,N/A,,Scattered Clouds,230,2013-08-07 08:15:00
3:35 AM,71.6,69.8,94,29.79,10.0,WSW,5.8,-,N/A,,Scattered Clouds,240,2013-08-07 08:35:00
3:55 AM,71.6,68.0,88,29.79,10.0,WSW,6.9,-,N/A,,Clear,250,2013-08-07 08:55:00
4:15 AM,71.6,68.0,88,29.79,10.0,WSW,4.6,-,N/A,,Clear,250,2013-08-07 09:15:00
4:35 AM,71.6,68.0,88,29.80,7.0,SW,4.6,-,N/A,,Clear,220,2013-08-07 09:35:00
4:55 AM,71.6,68.0,88,29.80,10.0,SSW,3.5,-,N/A,,Clear,200,2013-08-07 09:55:00
5:15 AM,69.8,68.0,94,29.80,7.0,SSW,6.9,-,N/A,,Clear,200,2013-08-07 10:15:00
5:35 AM,69.8,68.0,94,29.81,7.0,WSW,4.6,-,N/A,,Clear,240,2013-08-07 10:35:00
5:55 AM,69.8,66.2,88,29.80,5.0,West,4.6,-,N/A,,Clear,280,2013-08-07 10:55:00
6:15 AM,69.8,66.2,88,29.81,5.0,WNW,4.6,-,N/A,,Clear,290,2013-08-07 11:15:00
6:35 AM,69.8,68.0,94,29.81,7.0,WNW,4.6,-,N/A,,Clear,300,2013-08-07 11:35:00
6:55 AM,69.8,66.2,88,29.81,10.0,NW,4.6,-,N/A,,Clear,310,2013-08-07 11:55:00
7:15 AM,71.6,66.2,83,29.82,10.0,WNW,5.8,-,N/A,,Clear,290,2013-08-07 12:15:00
7:35 AM,71.6,68.0,88,29.83,10.0,WNW,4.6,-,N/A,,Clear,290,2013-08-07 12:35:00
7:55 AM,71.6,68.0,88,29.84,10.0,WNW,4.6,-,N/A,,Clear,290,2013-08-07 12:55:00
8:15 AM,73.4,66.2,78,29.85,10.0,NNW,5.8,-,N/A,,Clear,330,2013-08-07 13:15:00
8:35 AM,73.4,64.4,73,29.85,10.0,NNW,6.9,-,N/A,,Clear,330,2013-08-07 13:35:00
8:55 AM,73.4,64.4,73,29.86,10.0,NW,6.9,-,N/A,,Clear,310,2013-08-07 13:55:00
9:15 AM,73.4,60.8,65,29.86,10.0,North,5.8,-,N/A,,Mostly Cloudy,350,2013-08-07 14:15:00
9:35 AM,73.4,60.8,65,29.86,10.0,NW,8.1,-,N/A,,Mostly Cloudy,320,2013-08-07 14:35:00
9:55 AM,73.4,60.8,65,29.87,10.0,NW,6.9,-,N/A,,Mostly Cloudy,310,2013-08-07 14:55:00
10:15 AM,75.2,60.8,61,29.87,10.0,NW,5.8,-,N/A,,Scattered Clouds,310,2013-08-07 15:15:00
10:35 AM,77.0,60.8,57,29.88,10.0,NW,3.5,-,N/A,,Clear,320,2013-08-07 15:35:00
10:55 AM,77.0,60.8,57,29.89,10.0,NW,5.8,-,N/A,,Clear,310,2013-08-07 15:55:00
11:15 AM,77.0,59.0,54,29.89,10.0,NNW,8.1,-,N/A,,Clear,330,2013-08-07 16:15:00
11:35 AM,78.8,60.8,54,29.90,10.0,NW,6.9,-,N/A,,Scattered Clouds,320,2013-08-07 16:35:00
11:55 AM,78.8,59.0,51,29.90,10.0,NNW,9.2,-,N/A,,Scattered Clouds,340,2013-08-07 16:55:00
12:15 PM,78.8,60.8,54,29.90,10.0,NW,6.9,-,N/A,,Mostly Cloudy,320,2013-08-07 17:15:00
12:35 PM,78.8,60.8,54,29.90,10.0,NNW,10.4,-,N/A,,Mostly Cloudy,340,2013-08-07 17:35:00
12:55 PM,78.8,60.8,54,29.90,10.0,North,9.2,-,N/A,,Mostly Cloudy,350,2013-08-07 17:55:00
1:15 PM,78.8,59.0,51,29.90,10.0,NNW,9.2,19.6,N/A,,Mostly Cloudy,330,2013-08-07 18:15:00
1:35 PM,78.8,59.0,51,29.91,10.0,North,13.8,19.6,N/A,,Mostly Cloudy,350,2013-08-07 18:35:00
1:55 PM,80.6,60.8,51,29.91,10.0,NNW,12.7,-,N/A,,Scattered Clouds,340,2013-08-07 18:55:00
2:15 PM,78.8,59.0,51,29.91,10.0,NNW,16.1,21.9,N/A,,Scattered Clouds,330,2013-08-07 19:15:00
2:35 PM,78.8,60.8,54,29.92,10.0,NNW,15.0,20.7,N/A,,Scattered Clouds,340,2013-08-07 19:35:00
2:55 PM,75.2,59.0,57,29.92,10.0,North,12.7,20.7,N/A,,Mostly Cloudy,350,2013-08-07 19:55:00
3:15 PM,77.0,60.8,57,29.92,10.0,North,12.7,18.4,N/A,,Mostly Cloudy,360,2013-08-07 20:15:00
3:35 PM,73.4,59.0,61,29.93,10.0,North,13.8,18.4,N/A,,Mostly Cloudy,350,2013-08-07 20:35:00
3:55 PM,73.4,59.0,61,29.93,10.0,NNW,11.5,19.6,N/A,,Mostly Cloudy,330,2013-08-07 20:55:00
4:15 PM,73.4,59.0,61,29.93,10.0,North,10.4,16.1,N/A,,Mostly Cloudy,360,2013-08-07 21:15:00
4:35 PM,71.6,57.2,60,29.93,10.0,North,8.1,16.1,N/A,,Scattered Clouds,360,2013-08-07 21:35:00
4:55 PM,73.4,57.2,57,29.93,10.0,North,10.4,-,N/A,,Scattered Clouds,350,2013-08-07 21:55:00
5:15 PM,73.4,57.2,57,29.94,10.0,North,6.9,-,N/A,,Clear,350,2013-08-07 22:15:00
5:35 PM,73.4,57.2,57,29.94,10.0,NNW,5.8,-,N/A,,Clear,330,2013-08-07 22:35:00
5:55 PM,73.4,57.2,57,29.94,10.0,North,5.8,-,N/A,,Clear,10,2013-08-07 22:55:00
6:15 PM,73.4,59.0,61,29.94,10.0,North,3.5,-,N/A,,Scattered Clouds,360,2013-08-07 23:15:00
6:35 PM,73.4,57.2,57,29.94,10.0,North,6.9,-,N/A,,Scattered Clouds,360,2013-08-07 23:35:00
6:55 PM,73.4,59.0,61,29.94,10.0,NNW,3.5,-,N/A,,Clear,330,2013-08-07 23:55:00
7:15 PM,73.4,57.2,57,29.94,10.0,NW,4.6,-,N/A,,Clear,320,2013-08-08 00:15:00
7:35 PM,71.6,59.0,64,29.95,10.0,NNW,3.5,-,N/A,,Clear,330,2013-08-08 00:35:00
7:55 PM,69.8,59.0,68,29.96,10.0,Calm,Calm,-,N/A,,Clear,0,2013-08-08 00:55:00
8:15 PM,69.8,59.0,68,29.97,10.0,Calm,Calm,-,N/A,,Clear,0,2013-08-08 01:15:00
8:35 PM,68.0,59.0,73,29.97,10.0,Calm,Calm,-,N/A,,Clear,0,2013-08-08 01:35:00
8:55 PM,68.0,59.0,73,29.98,10.0,WNW,3.5,-,N/A,,Clear,300,2013-08-08 01:55:00
9:15 PM,68.0,59.0,73,29.99,10.0,Calm,Calm,-,N/A,,Clear,0,2013-08-08 02:15:00
9:35 PM,66.2,59.0,78,29.99,10.0,Calm,Calm,-,N/A,,Clear,0,2013-08-08 02:35:00
9:55 PM,64.4,59.0,83,30.00,10.0,NNW,3.5,-,N/A,,Scattered Clouds,330,2013-08-08 02:55:00
10:15 PM,64.4,59.0,83,30.00,10.0,Calm,Calm,-,N/A,,Overcast,0,2013-08-08 03:15:00
10:35 PM,62.6,59.0,88,30.00,10.0,NNW,3.5,-,N/A,,Overcast,330,2013-08-08 03:35:00
10:55 PM,62.6,59.0,88,30.00,10.0,NNW,4.6,-,N/A,,Mostly Cloudy,330,2013-08-08 03:55:00
11:15 PM,62.6,59.0,88,30.00,10.0,NNW,3.5,-,N/A,,Scattered Clouds,340,2013-08-08 04:15:00
11:35 PM,62.6,57.2,82,30.00,10.0,North,3.5,-,N/A,,Scattered Clouds,350,2013-08-08 04:35:00
11:55 PM,62.6,57.2,82,30.00,10.0,North,5.8,-,N/A,,Scattered Clouds,350,2013-08-08 04:55:00